Wetterdaten: aktuell Sonntag, 04.12.2022 10:15
Datum Zeit Temp. I. Temp. A. Temp. 2 Temp. 3 Temp. Wind Windchill X Feuchte I. Feuchte A. Feuchte 2 Feuchte 3 Luftdruck Regen Wind Richtung Richtung Taupunkt Windchill Windben
04.12.2022 10:15 20,3 C 0,5 C 14,9 C 15,2 C 0,1 C -0,8 C 45 % 61 % 59 % 58 % 1016,2 hPa 0,0 mm 6,8 km/h (2 Bft) N-NO 22 -6,1 C 0,1 C 6,8 km/h (2 Bft)
04.12.2022 10:10 20,2 C 0,4 C 14,9 C 15,2 C 0,0 C -0,8 C 45 % 61 % 59 % 58 % 1016,4 hPa 0,0 mm 6,8 km/h (2 Bft) N-NO 22 -6,2 C 0,0 C 6,4 km/h (2 Bft)
04.12.2022 10:05 20,2 C 0,4 C 14,9 C 15,2 C 0,2 C -0,3 C 45 % 61 % 58 % 58 % 1016,4 hPa 0,0 mm 5,5 km/h (1 Bft) NO 45 -6,2 C 0,4 C 8,5 km/h (2 Bft)
04.12.2022 10:00 20,2 C 0,4 C 14,9 C 15,2 C 0,2 C -0,1 C 45 % 62 % 58 % 58 % 1016,4 hPa 0,0 mm 4,6 km/h (1 Bft) O-NO 67 -6,0 C 0,4 C 6,0 km/h (2 Bft)
04.12.2022 09:55 20,2 C 0,4 C 14,9 C 15,2 C 0,2 C -0,2 C 45 % 62 % 59 % 58 % 1016,4 hPa 0,0 mm 5,0 km/h (1 Bft) O-SO 112 -6,0 C 0,4 C 4,3 km/h (1 Bft)
04.12.2022 09:50 20,2 C 0,4 C 14,9 C 15,2 C 0,1 C -0,4 C 45 % 63 % 59 % 58 % 1016,4 hPa 0,0 mm 5,0 km/h (1 Bft) O 90 -5,8 C 0,4 C 3,9 km/h (1 Bft)
04.12.2022 09:45 20,2 C 0,3 C 14,9 C 15,2 C 0,2 C -0,1 C 45 % 63 % 59 % 58 % 1016,4 hPa 0,0 mm 4,3 km/h (1 Bft) NO 45 -5,9 C 0,3 C 11,1 km/h (2 Bft)
04.12.2022 09:40 20,1 C 0,3 C 14,9 C 15,2 C 0,2 C 0,1 C 45 % 64 % 59 % 58 % 1016,4 hPa 0,0 mm 3,9 km/h (1 Bft) O-NO 67 -5,7 C 0,3 C 3,2 km/h (1 Bft)
04.12.2022 09:35 20,1 C 0,2 C 14,9 C 15,2 C 0,1 C -0,2 C 45 % 64 % 59 % 58 % 1016,4 hPa 0,0 mm 4,3 km/h (1 Bft) O 90 -5,8 C 0,2 C 5,3 km/h (1 Bft)
04.12.2022 09:30 20,0 C 0,2 C 14,9 C 15,2 C -0,1 C -0,7 C 45 % 64 % 58 % 58 % 1016,5 hPa 0,0 mm 5,2 km/h (1 Bft) O 90 -5,8 C 0,2 C 7,2 km/h (2 Bft)
04.12.2022 09:25 20,1 C 0,2 C 14,9 C 15,2 C -0,2 C -0,9 C 45 % 64 % 58 % 58 % 1016,5 hPa 0,0 mm 5,9 km/h (2 Bft) O-NO 67 -5,8 C 0,2 C 4,8 km/h (1 Bft)
04.12.2022 09:20 20,0 C 0,2 C 14,9 C 15,2 C -0,2 C -1,0 C 45 % 64 % 58 % 58 % 1016,5 hPa 0,0 mm 5,7 km/h (1 Bft) N-NO 22 -5,8 C 0,2 C 6,9 km/h (2 Bft)
04.12.2022 09:15 20,0 C 0,1 C 14,9 C 15,3 C -0,1 C -0,6 C 46 % 64 % 59 % 58 % 1016,5 hPa 0,0 mm 4,8 km/h (1 Bft) N-NO 22 -5,9 C 0,1 C 2,4 km/h (1 Bft)
04.12.2022 09:10 20,0 C 0,1 C 15,0 C 15,3 C -0,1 C -0,4 C 46 % 64 % 59 % 58 % 1016,4 hPa 0,0 mm 4,1 km/h (1 Bft) W-NW 292 -5,9 C 0,1 C 3,1 km/h (1 Bft)
04.12.2022 09:05 20,0 C 0,0 C 15,0 C 15,3 C -0,1 C -0,4 C 46 % 64 % 58 % 58 % 1016,4 hPa 0,0 mm 3,9 km/h (1 Bft) N-NO 22 -6,0 C 0,0 C 0,0 km/h (0 Bft)
04.12.2022 09:00 20,0 C 0,0 C 15,0 C 15,3 C -0,1 C -0,3 C 46 % 64 % 59 % 58 % 1016,4 hPa 0,0 mm 3,2 km/h (1 Bft) NO 45 -6,0 C 0,0 C 2,7 km/h (1 Bft)
04.12.2022 08:55 20,0 C 0,0 C 15,0 C 15,3 C -0,1 C -0,3 C 46 % 64 % 59 % 58 % 1016,4 hPa 0,0 mm 3,4 km/h (1 Bft) N-NO 22 -6,0 C 0,0 C 2,1 km/h (1 Bft)
04.12.2022 08:50 20,0 C 0,0 C 15,0 C 15,3 C -0,4 C -1,1 C 46 % 64 % 58 % 58 % 1016,0 hPa 0,0 mm 5,0 km/h (1 Bft) O-NO 67 -6,0 C 0,0 C 2,7 km/h (1 Bft)
04.12.2022 08:45 20,0 C 0,0 C 15,0 C 15,3 C -0,3 C -0,9 C 46 % 64 % 59 % 58 % 1016,0 hPa 0,0 mm 4,8 km/h (1 Bft) O 90 -6,0 C 0,0 C 2,9 km/h (1 Bft)
04.12.2022 08:40 19,9 C 0,0 C 15,0 C 15,3 C -0,1 C -0,2 C 46 % 64 % 58 % 58 % 1016,0 hPa 0,0 mm 3,0 km/h (1 Bft) N 360 -6,0 C 0,0 C 4,3 km/h (1 Bft)
04.12.2022 08:35 19,8 C 0,0 C 15,0 C 15,3 C 0,0 C -0,1 C 47 % 64 % 58 % 58 % 1016,0 hPa 0,0 mm 2,7 km/h (1 Bft) N-NO 22 -6,0 C 0,0 C 2,3 km/h (1 Bft)
04.12.2022 08:30 19,7 C 0,1 C 15,0 C 15,3 C 0,0 C -0,1 C 47 % 64 % 58 % 58 % 1015,6 hPa 0,0 mm 2,5 km/h (1 Bft) NO 45 -5,9 C 0,1 C 2,4 km/h (1 Bft)
04.12.2022 08:25 19,7 C 0,1 C 15,0 C 15,3 C 0,0 C -0,1 C 47 % 64 % 58 % 58 % 1015,6 hPa 0,0 mm 3,0 km/h (1 Bft) N 360 -5,9 C 0,1 C 0,0 km/h (0 Bft)
04.12.2022 08:20 19,6 C 0,1 C 15,0 C 15,4 C -0,2 C -0,9 C 47 % 64 % 58 % 58 % 1015,6 hPa 0,0 mm 5,0 km/h (1 Bft) O 90 -5,9 C 0,1 C 6,4 km/h (2 Bft)
04.12.2022 08:15 19,5 C 0,1 C 15,0 C 15,4 C -0,3 C -1,1 C 46 % 64 % 58 % 58 % 1015,6 hPa 0,0 mm 5,5 km/h (1 Bft) O-NO 67 -5,9 C 0,1 C 3,7 km/h (1 Bft)
04.12.2022 08:10 19,2 C 0,0 C 15,0 C 15,4 C -0,3 C -0,9 C 46 % 64 % 58 % 58 % 1015,1 hPa 0,0 mm 4,8 km/h (1 Bft) N-NO 22 -6,0 C 0,0 C 5,0 km/h (1 Bft)
04.12.2022 08:05 19,2 C 0,1 C 15,0 C 15,4 C -0,3 C -1,2 C 45 % 64 % 58 % 58 % 1015,1 hPa 0,0 mm 5,5 km/h (1 Bft) O 90 -5,9 C 0,1 C 0,0 km/h (0 Bft)
04.12.2022 08:00 19,0 C 0,0 C 15,1 C 15,4 C -0,5 C -1,6 C 45 % 64 % 58 % 58 % 1015,1 hPa 0,0 mm 6,1 km/h (2 Bft) N-NO 22 -6,0 C 0,0 C 3,9 km/h (1 Bft)
04.12.2022 07:55 18,8 C 0,0 C 15,1 C 15,4 C -0,6 C -1,7 C 44 % 64 % 58 % 58 % 1015,1 hPa 0,0 mm 5,7 km/h (1 Bft) N-NO 22 -6,0 C 0,0 C 13,0 km/h (3 Bft)
04.12.2022 07:50 18,9 C 0,0 C 15,1 C 15,4 C -0,4 C -1,3 C 41 % 64 % 58 % 58 % 1015,5 hPa 0,0 mm 5,0 km/h (1 Bft) O-SO 112 -6,0 C 0,0 C 5,6 km/h (1 Bft)
04.12.2022 07:45 19,5 C 0,0 C 15,1 C 15,4 C -0,4 C -1,3 C 37 % 64 % 58 % 58 % 1015,5 hPa 0,0 mm 5,0 km/h (1 Bft) N-NW 337 -6,0 C 0,0 C 3,4 km/h (1 Bft)
04.12.2022 07:40 20,1 C 0,1 C 15,1 C 15,4 C -0,3 C -1,2 C 45 % 64 % 58 % 58 % 1015,5 hPa 0,0 mm 5,0 km/h (1 Bft) O 90 -5,9 C 0,1 C 5,5 km/h (1 Bft)
04.12.2022 07:35 20,1 C 0,1 C 15,1 C 15,4 C -0,3 C -1,2 C 45 % 65 % 58 % 58 % 1015,5 hPa 0,0 mm 5,2 km/h (1 Bft) O-SO 112 -5,7 C 0,1 C 2,9 km/h (1 Bft)
04.12.2022 07:30 20,1 C 0,2 C 15,1 C 15,4 C -0,2 C -1,1 C 45 % 65 % 58 % 58 % 1015,4 hPa 0,0 mm 5,0 km/h (1 Bft) O 90 -5,6 C 0,2 C 4,5 km/h (1 Bft)
04.12.2022 07:25 20,1 C 0,1 C 15,1 C 15,4 C -0,2 C -0,9 C 45 % 65 % 58 % 58 % 1015,4 hPa 0,0 mm 5,0 km/h (1 Bft) O-NO 67 -5,7 C 0,1 C 9,3 km/h (2 Bft)
04.12.2022 07:20 20,1 C 0,1 C 15,1 C 15,4 C -0,4 C -1,5 C 45 % 65 % 58 % 58 % 1015,4 hPa 0,0 mm 6,1 km/h (2 Bft) O-NO 67 -5,7 C 0,1 C 6,4 km/h (2 Bft)
04.12.2022 07:15 20,0 C 0,1 C 15,1 C 15,4 C -0,5 C -1,6 C 45 % 65 % 58 % 58 % 1015,4 hPa 0,0 mm 6,4 km/h (2 Bft) N 360 -5,7 C 0,1 C 5,1 km/h (1 Bft)
04.12.2022 07:10 20,0 C 0,1 C 15,1 C 15,4 C -0,3 C -1,2 C 45 % 65 % 58 % 58 % 1017,5 hPa 0,0 mm 5,2 km/h (1 Bft) O 90 -5,7 C 0,1 C 6,1 km/h (2 Bft)
04.12.2022 07:05 20,0 C 0,0 C 15,0 C 15,4 C -0,5 C -1,4 C 46 % 64 % 58 % 58 % 1017,5 hPa 0,0 mm 5,2 km/h (1 Bft) O-NO 67 -6,0 C 0,0 C 8,4 km/h (2 Bft)
04.12.2022 07:00 20,0 C 0,1 C 15,1 C 15,4 C -0,4 C -1,4 C 46 % 64 % 58 % 58 % 1017,5 hPa 0,0 mm 5,0 km/h (1 Bft) S-SO 157 -5,9 C 0,1 C 3,5 km/h (1 Bft)
04.12.2022 06:55 20,0 C 0,1 C 15,1 C 15,4 C -0,5 C -1,8 C 46 % 64 % 58 % 58 % 1017,5 hPa 0,0 mm 5,7 km/h (1 Bft) NO 45 -5,9 C 0,1 C 4,5 km/h (1 Bft)
04.12.2022 06:50 20,0 C 0,2 C 15,1 C 15,4 C -0,5 C -1,8 C 46 % 64 % 58 % 57 % 1017,8 hPa 0,0 mm 5,7 km/h (1 Bft) N 360 -5,8 C 0,2 C 3,4 km/h (1 Bft)
04.12.2022 06:45 20,0 C 0,2 C 15,1 C 15,4 C -0,3 C -1,3 C 46 % 64 % 58 % 58 % 1017,8 hPa 0,0 mm 5,0 km/h (1 Bft) O 90 -5,8 C 0,2 C 11,1 km/h (2 Bft)
04.12.2022 06:40 19,9 C 0,3 C 15,1 C 15,4 C -0,1 C -0,9 C 46 % 64 % 58 % 58 % 1017,8 hPa 0,0 mm 4,6 km/h (1 Bft) NO 45 -5,7 C 0,3 C 1,8 km/h (1 Bft)
04.12.2022 06:35 19,9 C 0,4 C 15,1 C 15,4 C 0,1 C -0,6 C 46 % 64 % 58 % 58 % 1017,8 hPa 0,0 mm 4,3 km/h (1 Bft) N-NO 22 -5,6 C 0,4 C 5,0 km/h (1 Bft)
04.12.2022 06:30 19,8 C 0,4 C 15,1 C 15,4 C 0,1 C -0,6 C 46 % 64 % 58 % 58 % 1018,1 hPa 0,0 mm 4,6 km/h (1 Bft) N 360 -5,6 C 0,4 C 4,0 km/h (1 Bft)
04.12.2022 06:25 19,8 C 0,4 C 15,1 C 15,4 C 0,0 C -0,8 C 46 % 64 % 58 % 58 % 1018,1 hPa 0,0 mm 5,2 km/h (1 Bft) O 90 -5,6 C 0,4 C 11,1 km/h (2 Bft)
04.12.2022 06:20 19,7 C 0,4 C 15,1 C 15,4 C 0,1 C -0,4 C 46 % 64 % 59 % 58 % 1018,1 hPa 0,0 mm 4,3 km/h (1 Bft) O-NO 67 -5,6 C 0,4 C 4,7 km/h (1 Bft)
04.12.2022 06:15 19,7 C 0,5 C 15,1 C 15,4 C 0,2 C -0,5 C 46 % 64 % 58 % 58 % 1018,1 hPa 0,0 mm 4,6 km/h (1 Bft) O 90 -5,5 C 0,5 C 2,9 km/h (1 Bft)
04.12.2022 06:10 19,6 C 0,5 C 15,1 C 15,4 C 0,1 C -0,6 C 47 % 64 % 58 % 58 % 1018,1 hPa 0,0 mm 4,8 km/h (1 Bft) O-NO 67 -5,5 C 0,5 C 6,3 km/h (2 Bft)
04.12.2022 06:05 19,6 C 0,5 C 15,1 C 15,4 C 0,3 C -0,2 C 46 % 65 % 58 % 58 % 1018,1 hPa 0,0 mm 3,9 km/h (1 Bft) N-NO 22 -5,3 C 0,5 C 2,7 km/h (1 Bft)
04.12.2022 06:00 19,6 C 0,5 C 15,1 C 15,4 C 0,2 C -0,5 C 46 % 65 % 58 % 58 % 1018,1 hPa 0,0 mm 4,6 km/h (1 Bft) O 90 -5,3 C 0,5 C 6,3 km/h (2 Bft)
04.12.2022 05:55 19,6 C 0,5 C 15,1 C 15,4 C 0,2 C -0,3 C 47 % 65 % 58 % 58 % 1018,1 hPa 0,0 mm 4,6 km/h (1 Bft) N-NO 22 -5,3 C 0,5 C 3,7 km/h (1 Bft)
04.12.2022 05:50 19,6 C 0,5 C 15,1 C 15,4 C 0,4 C 0,1 C 47 % 65 % 59 % 58 % 1018,2 hPa 0,0 mm 3,9 km/h (1 Bft) N-NO 22 -5,3 C 0,5 C 3,4 km/h (1 Bft)
04.12.2022 05:45 19,6 C 0,5 C 15,1 C 15,4 C 0,4 C 0,3 C 47 % 65 % 58 % 58 % 1018,2 hPa 0,0 mm 3,2 km/h (1 Bft) O 90 -5,3 C 0,5 C 4,8 km/h (1 Bft)
04.12.2022 05:40 19,6 C 0,5 C 15,1 C 15,4 C 0,4 C 0,3 C 47 % 65 % 58 % 58 % 1018,2 hPa 0,0 mm 3,2 km/h (1 Bft) N-NO 22 -5,3 C 0,5 C 3,5 km/h (1 Bft)
04.12.2022 05:35 19,6 C 0,5 C 15,1 C 15,4 C 0,4 C 0,3 C 47 % 65 % 58 % 58 % 1018,2 hPa 0,0 mm 2,5 km/h (1 Bft) O-NO 67 -5,3 C 0,5 C 0,0 km/h (0 Bft)
04.12.2022 05:30 19,6 C 0,5 C 15,1 C 15,4 C 0,4 C 0,3 C 47 % 65 % 58 % 58 % 1018,2 hPa 0,0 mm 2,0 km/h (1 Bft) O-SO 112 -5,3 C 0,5 C 0,0 km/h (0 Bft)
04.12.2022 05:25 19,6 C 0,5 C 15,1 C 15,4 C 0,5 C 0,4 C 47 % 65 % 58 % 58 % 1018,2 hPa 0,0 mm 2,7 km/h (1 Bft) N-NO 22 -5,3 C 0,5 C 0,0 km/h (0 Bft)
04.12.2022 05:20 19,6 C 0,5 C 15,1 C 15,4 C 0,4 C 0,3 C 47 % 65 % 58 % 58 % 1018,2 hPa 0,0 mm 3,2 km/h (1 Bft) O-NO 67 -5,3 C 0,5 C 3,2 km/h (1 Bft)
04.12.2022 05:15 19,6 C 0,5 C 15,1 C 15,4 C 0,4 C 0,3 C 47 % 65 % 59 % 58 % 1018,2 hPa 0,0 mm 2,7 km/h (1 Bft) O-NO 67 -5,3 C 0,5 C 2,6 km/h (1 Bft)
04.12.2022 05:10 19,6 C 0,5 C 15,1 C 15,4 C 0,4 C 0,3 C 47 % 65 % 58 % 58 % 1018,2 hPa 0,0 mm 1,6 km/h (1 Bft) N-NO 22 -5,3 C 0,5 C 2,4 km/h (1 Bft)
04.12.2022 05:05 19,6 C 0,5 C 15,1 C 15,4 C 0,4 C 0,3 C 47 % 65 % 59 % 58 % 1018,2 hPa 0,0 mm 1,4 km/h (1 Bft) O-NO 67 -5,3 C 0,5 C 5,5 km/h (1 Bft)
04.12.2022 05:00 19,6 C 0,5 C 15,1 C 15,4 C 0,5 C 0,4 C 47 % 65 % 58 % 58 % 1018,2 hPa 0,0 mm 2,7 km/h (1 Bft) N 360 -5,3 C 0,5 C 2,3 km/h (1 Bft)
04.12.2022 04:55 19,6 C 0,5 C 15,1 C 15,4 C 0,5 C 0,4 C 47 % 65 % 58 % 58 % 1018,2 hPa 0,0 mm 3,4 km/h (1 Bft) NO 45 -5,3 C 0,5 C 3,4 km/h (1 Bft)
04.12.2022 04:50 19,6 C 0,5 C 15,1 C 15,4 C 0,3 C -0,2 C 47 % 65 % 58 % 58 % 1018,2 hPa 0,0 mm 4,6 km/h (1 Bft) O 90 -5,3 C 0,5 C 4,8 km/h (1 Bft)
04.12.2022 04:45 19,6 C 0,5 C 15,1 C 15,4 C 0,3 C -0,2 C 47 % 65 % 58 % 58 % 1018,2 hPa 0,0 mm 4,6 km/h (1 Bft) O 90 -5,3 C 0,5 C 2,9 km/h (1 Bft)
04.12.2022 04:40 19,6 C 0,5 C 15,1 C 15,4 C 0,4 C 0,3 C 47 % 65 % 58 % 58 % 1018,2 hPa 0,0 mm 3,4 km/h (1 Bft) O 90 -5,3 C 0,5 C 5,5 km/h (1 Bft)
04.12.2022 04:35 19,6 C 0,5 C 15,1 C 15,4 C 0,4 C 0,3 C 47 % 65 % 58 % 58 % 1018,2 hPa 0,0 mm 3,4 km/h (1 Bft) N 360 -5,3 C 0,5 C 4,2 km/h (1 Bft)
04.12.2022 04:30 19,6 C 0,5 C 15,1 C 15,4 C 0,4 C 0,3 C 47 % 65 % 58 % 58 % 1018,2 hPa 0,0 mm 3,4 km/h (1 Bft) NO 45 -5,3 C 0,5 C 3,2 km/h (1 Bft)
04.12.2022 04:25 19,6 C 0,5 C 15,1 C 15,4 C 0,4 C 0,3 C 47 % 65 % 58 % 58 % 1018,2 hPa 0,0 mm 3,0 km/h (1 Bft) O-NO 67 -5,3 C 0,5 C 6,1 km/h (2 Bft)
04.12.2022 04:20 19,6 C 0,5 C 15,1 C 15,4 C 0,4 C 0,3 C 47 % 65 % 58 % 58 % 1018,2 hPa 0,0 mm 2,0 km/h (1 Bft) N 360 -5,3 C 0,5 C 2,4 km/h (1 Bft)
04.12.2022 04:15 19,7 C 0,5 C 15,1 C 15,4 C 0,4 C 0,3 C 47 % 65 % 59 % 58 % 1018,2 hPa 0,0 mm 2,5 km/h (1 Bft) NO 45 -5,3 C 0,5 C 0,0 km/h (0 Bft)
04.12.2022 04:10 19,7 C 0,5 C 15,1 C 15,4 C 0,4 C 0,3 C 47 % 65 % 58 % 58 % 1017,9 hPa 0,0 mm 3,0 km/h (1 Bft) O 90 -5,3 C 0,5 C 0,0 km/h (0 Bft)
04.12.2022 04:05 19,6 C 0,5 C 15,1 C 15,4 C 0,4 C 0,3 C 47 % 65 % 58 % 58 % 1017,9 hPa 0,0 mm 3,4 km/h (1 Bft) NO 45 -5,3 C 0,5 C 4,2 km/h (1 Bft)
04.12.2022 04:00 19,6 C 0,5 C 15,1 C 15,4 C 0,4 C 0,1 C 47 % 65 % 58 % 58 % 1017,9 hPa 0,0 mm 3,9 km/h (1 Bft) O 90 -5,3 C 0,5 C 2,6 km/h (1 Bft)
04.12.2022 03:55 19,7 C 0,5 C 15,1 C 15,4 C 0,4 C 0,3 C 47 % 65 % 58 % 58 % 1017,9 hPa 0,0 mm 3,6 km/h (1 Bft) NO 45 -5,3 C 0,5 C 4,2 km/h (1 Bft)
04.12.2022 03:50 19,7 C 0,5 C 15,1 C 15,4 C 0,5 C 0,4 C 47 % 65 % 58 % 58 % 1018,0 hPa 0,0 mm 3,0 km/h (1 Bft) N-NO 22 -5,3 C 0,5 C 1,6 km/h (1 Bft)
04.12.2022 03:45 19,7 C 0,5 C 15,1 C 15,4 C 0,5 C 0,4 C 47 % 65 % 58 % 58 % 1018,0 hPa 0,0 mm 3,0 km/h (1 Bft) O-SO 112 -5,3 C 0,5 C 2,7 km/h (1 Bft)
04.12.2022 03:40 19,7 C 0,6 C 15,1 C 15,4 C 0,5 C 0,4 C 46 % 65 % 58 % 58 % 1018,0 hPa 0,0 mm 3,6 km/h (1 Bft) NO 45 -5,2 C 0,6 C 4,3 km/h (1 Bft)
04.12.2022 03:35 19,7 C 0,6 C 15,1 C 15,4 C 0,5 C 0,4 C 47 % 64 % 58 % 58 % 1018,0 hPa 0,0 mm 3,6 km/h (1 Bft) O-NO 67 -5,4 C 0,6 C 3,5 km/h (1 Bft)
04.12.2022 03:30 19,7 C 0,6 C 15,1 C 15,4 C 0,6 C 0,5 C 47 % 64 % 58 % 58 % 1018,0 hPa 0,0 mm 3,4 km/h (1 Bft) O-SO 112 -5,4 C 0,6 C 4,2 km/h (1 Bft)
04.12.2022 03:25 19,7 C 0,6 C 15,1 C 15,5 C 0,6 C 0,5 C 47 % 64 % 58 % 58 % 1018,0 hPa 0,0 mm 3,4 km/h (1 Bft) N-NO 22 -5,4 C 0,6 C 3,4 km/h (1 Bft)
04.12.2022 03:20 19,7 C 0,6 C 15,1 C 15,4 C 0,6 C 0,5 C 47 % 64 % 58 % 58 % 1018,0 hPa 0,0 mm 2,7 km/h (1 Bft) N-NW 337 -5,4 C 0,6 C 5,1 km/h (1 Bft)
04.12.2022 03:15 19,8 C 0,6 C 15,1 C 15,5 C 0,6 C 0,5 C 47 % 64 % 58 % 58 % 1018,0 hPa 0,0 mm 2,7 km/h (1 Bft) O 90 -5,4 C 0,6 C 2,4 km/h (1 Bft)
04.12.2022 03:10 19,8 C 0,6 C 15,1 C 15,4 C 0,6 C 0,5 C 46 % 64 % 58 % 58 % 1018,1 hPa 0,0 mm 3,4 km/h (1 Bft) O-SO 112 -5,4 C 0,6 C 5,1 km/h (1 Bft)
04.12.2022 03:05 19,8 C 0,6 C 15,1 C 15,4 C 0,6 C 0,5 C 47 % 64 % 58 % 58 % 1018,1 hPa 0,0 mm 2,7 km/h (1 Bft) N-NO 22 -5,4 C 0,6 C 3,5 km/h (1 Bft)
04.12.2022 03:00 19,8 C 0,6 C 15,1 C 15,5 C 0,6 C 0,5 C 47 % 64 % 58 % 58 % 1018,1 hPa 0,0 mm 2,5 km/h (1 Bft) N 360 -5,4 C 0,6 C 2,4 km/h (1 Bft)
04.12.2022 02:55 19,8 C 0,7 C 15,1 C 15,5 C 0,6 C 0,5 C 47 % 64 % 58 % 58 % 1018,1 hPa 0,0 mm 3,4 km/h (1 Bft) N-NO 22 -5,3 C 0,7 C 0,0 km/h (0 Bft)
04.12.2022 02:50 19,8 C 0,7 C 15,1 C 15,5 C 0,5 C 0,2 C 47 % 64 % 58 % 58 % 1018,0 hPa 0,0 mm 4,1 km/h (1 Bft) O-SO 112 -5,3 C 0,7 C 4,2 km/h (1 Bft)
04.12.2022 02:45 19,8 C 0,6 C 15,1 C 15,5 C 0,6 C 0,5 C 47 % 64 % 58 % 58 % 1018,0 hPa 0,0 mm 3,2 km/h (1 Bft) NO 45 -5,4 C 0,6 C 4,3 km/h (1 Bft)
04.12.2022 02:40 19,8 C 0,6 C 15,1 C 15,5 C 0,6 C 0,5 C 47 % 64 % 58 % 58 % 1018,0 hPa 0,0 mm 2,3 km/h (1 Bft) N-NO 22 -5,4 C 0,6 C 4,3 km/h (1 Bft)
04.12.2022 02:35 19,8 C 0,7 C 15,1 C 15,5 C 0,6 C 0,5 C 47 % 64 % 58 % 58 % 1018,0 hPa 0,0 mm 2,5 km/h (1 Bft) N 360 -5,3 C 0,7 C 0,0 km/h (0 Bft)
04.12.2022 02:30 19,8 C 0,7 C 15,1 C 15,5 C 0,7 C 0,6 C 47 % 64 % 58 % 58 % 1017,9 hPa 0,0 mm 1,8 km/h (1 Bft) O 90 -5,3 C 0,7 C 4,5 km/h (1 Bft)
04.12.2022 02:25 19,8 C 0,8 C 15,1 C 15,5 C 0,7 C 0,6 C 47 % 64 % 58 % 58 % 1017,9 hPa 0,0 mm 1,1 km/h (1 Bft) N-NO 22 -5,2 C 0,8 C 3,2 km/h (1 Bft)
04.12.2022 02:20 19,8 C 0,7 C 15,1 C 15,5 C 0,7 C 0,6 C 46 % 64 % 58 % 58 % 1017,9 hPa 0,0 mm 2,0 km/h (1 Bft) O 90 -5,3 C 0,7 C 2,3 km/h (1 Bft)
04.12.2022 02:15 19,9 C 0,7 C 15,1 C 15,5 C 0,7 C 0,7 C 46 % 64 % 58 % 58 % 1017,9 hPa 0,0 mm 3,2 km/h (1 Bft) N-NO 22 -5,3 C 0,7 C 0,0 km/h (0 Bft)
04.12.2022 02:10 19,9 C 0,7 C 15,1 C 15,5 C 0,6 C 0,5 C 47 % 63 % 58 % 58 % 1017,8 hPa 0,0 mm 3,9 km/h (1 Bft) N 360 -5,5 C 0,7 C 0,0 km/h (0 Bft)
04.12.2022 02:05 19,9 C 0,7 C 15,1 C 15,5 C 0,6 C 0,3 C 46 % 63 % 58 % 58 % 1017,8 hPa 0,0 mm 4,3 km/h (1 Bft) O 90 -5,5 C 0,7 C 4,8 km/h (1 Bft)
04.12.2022 02:00 19,9 C 0,7 C 15,1 C 15,5 C 0,6 C 0,5 C 46 % 64 % 58 % 58 % 1017,8 hPa 0,0 mm 3,9 km/h (1 Bft) N-NO 22 -5,3 C 0,7 C 3,9 km/h (1 Bft)
04.12.2022 01:55 19,9 C 0,8 C 15,1 C 15,5 C 0,8 C 0,7 C 46 % 64 % 58 % 58 % 1017,8 hPa 0,0 mm 3,2 km/h (1 Bft) N-NO 22 -5,2 C 0,8 C 6,1 km/h (2 Bft)
04.12.2022 01:50 20,0 C 0,8 C 15,1 C 15,5 C 0,8 C 0,7 C 46 % 63 % 58 % 58 % 1017,7 hPa 0,0 mm 2,7 km/h (1 Bft) S-SW 202 -5,4 C 0,8 C 3,4 km/h (1 Bft)
04.12.2022 01:45 19,9 C 0,8 C 15,1 C 15,5 C 0,8 C 0,7 C 46 % 63 % 58 % 58 % 1017,7 hPa 0,0 mm 2,5 km/h (1 Bft) N-NO 22 -5,4 C 0,8 C 2,9 km/h (1 Bft)
04.12.2022 01:40 20,0 C 0,8 C 15,1 C 15,5 C 0,8 C 0,7 C 46 % 63 % 58 % 58 % 1017,7 hPa 0,0 mm 3,2 km/h (1 Bft) O-SO 112 -5,4 C 0,8 C 2,4 km/h (1 Bft)
04.12.2022 01:35 20,0 C 0,7 C 15,1 C 15,5 C 0,7 C 0,6 C 46 % 63 % 58 % 58 % 1017,7 hPa 0,0 mm 3,6 km/h (1 Bft) O 90 -5,5 C 0,7 C 3,1 km/h (1 Bft)
04.12.2022 01:30 20,0 C 0,7 C 15,1 C 15,5 C 0,7 C 0,6 C 46 % 63 % 58 % 58 % 1017,6 hPa 0,0 mm 3,6 km/h (1 Bft) O-NO 67 -5,5 C 0,7 C 4,5 km/h (1 Bft)
04.12.2022 01:25 20,0 C 0,8 C 15,1 C 15,5 C 0,8 C 0,7 C 46 % 63 % 58 % 58 % 1017,6 hPa 0,0 mm 3,4 km/h (1 Bft) NO 45 -5,4 C 0,8 C 4,8 km/h (1 Bft)
04.12.2022 01:20 20,0 C 0,8 C 15,1 C 15,5 C 0,8 C 0,7 C 46 % 63 % 58 % 58 % 1017,6 hPa 0,0 mm 2,7 km/h (1 Bft) O-SO 112 -5,4 C 0,8 C 2,3 km/h (1 Bft)
04.12.2022 01:15 20,1 C 0,8 C 15,1 C 15,5 C 0,8 C 0,7 C 46 % 62 % 58 % 57 % 1017,6 hPa 0,0 mm 3,0 km/h (1 Bft) N-NO 22 -5,6 C 0,8 C 2,9 km/h (1 Bft)
04.12.2022 01:10 20,1 C 0,8 C 15,1 C 15,5 C 0,8 C 0,7 C 46 % 62 % 58 % 58 % 1017,4 hPa 0,0 mm 2,7 km/h (1 Bft) N-NO 22 -5,6 C 0,8 C 2,4 km/h (1 Bft)
04.12.2022 01:05 20,2 C 0,8 C 15,1 C 15,5 C 0,8 C 0,7 C 46 % 62 % 58 % 58 % 1017,4 hPa 0,0 mm 3,2 km/h (1 Bft) N 360 -5,6 C 0,8 C 3,4 km/h (1 Bft)
04.12.2022 01:00 20,2 C 0,8 C 15,1 C 15,5 C 0,7 C 0,5 C 46 % 62 % 58 % 58 % 1017,4 hPa 0,0 mm 3,9 km/h (1 Bft) O 90 -5,6 C 0,8 C 4,7 km/h (1 Bft)
04.12.2022 00:55 20,2 C 0,8 C 15,1 C 15,5 C 0,7 C 0,6 C 46 % 62 % 58 % 58 % 1017,4 hPa 0,0 mm 3,6 km/h (1 Bft) O 90 -5,6 C 0,8 C 8,0 km/h (2 Bft)
04.12.2022 00:50 20,3 C 0,8 C 15,1 C 15,5 C 0,7 C 0,5 C 46 % 62 % 58 % 58 % 1017,2 hPa 0,0 mm 3,9 km/h (1 Bft) N-NO 22 -5,6 C 0,8 C 4,7 km/h (1 Bft)
04.12.2022 00:45 20,3 C 0,8 C 15,1 C 15,5 C 0,6 C 0,2 C 46 % 62 % 58 % 58 % 1017,2 hPa 0,0 mm 4,6 km/h (1 Bft) O-NO 67 -5,6 C 0,8 C 3,2 km/h (1 Bft)
04.12.2022 00:40 20,4 C 0,8 C 15,1 C 15,5 C 0,5 C -0,1 C 46 % 62 % 58 % 58 % 1017,2 hPa 0,0 mm 5,2 km/h (1 Bft) NO 45 -5,6 C 0,8 C 4,2 km/h (1 Bft)
04.12.2022 00:35 20,4 C 0,8 C 15,1 C 15,5 C 0,4 C -0,4 C 46 % 62 % 58 % 58 % 1017,2 hPa 0,0 mm 5,9 km/h (2 Bft) O-NO 67 -5,6 C 0,8 C 5,1 km/h (1 Bft)
04.12.2022 00:30 20,4 C 0,8 C 15,1 C 15,5 C 0,5 C 0,0 C 46 % 62 % 58 % 58 % 1017,0 hPa 0,0 mm 5,0 km/h (1 Bft) O 90 -5,6 C 0,8 C 7,6 km/h (2 Bft)
04.12.2022 00:25 20,4 C 0,8 C 15,1 C 15,5 C 0,7 C 0,4 C 46 % 61 % 58 % 58 % 1017,0 hPa 0,0 mm 4,1 km/h (1 Bft) O-NO 67 -5,8 C 0,8 C 9,5 km/h (2 Bft)
04.12.2022 00:20 20,5 C 0,8 C 15,1 C 15,5 C 0,6 C 0,1 C 46 % 61 % 58 % 58 % 1017,0 hPa 0,0 mm 4,8 km/h (1 Bft) O-NO 67 -5,8 C 0,8 C 6,1 km/h (2 Bft)
04.12.2022 00:15 20,6 C 0,8 C 15,1 C 15,5 C 0,5 C 0,0 C 46 % 61 % 58 % 58 % 1017,0 hPa 0,0 mm 5,0 km/h (1 Bft) O 90 -5,8 C 0,8 C 8,7 km/h (2 Bft)
04.12.2022 00:10 20,6 C 0,8 C 15,1 C 15,5 C 0,6 C 0,2 C 46 % 61 % 58 % 58 % 1017,0 hPa 0,0 mm 4,6 km/h (1 Bft) O 90 -5,8 C 0,8 C 4,0 km/h (1 Bft)
04.12.2022 00:05 20,6 C 0,8 C 15,1 C 15,5 C 0,6 C 0,2 C 46 % 61 % 58 % 58 % 1017,0 hPa 0,0 mm 4,6 km/h (1 Bft) O 90 -5,8 C 0,8 C 4,0 km/h (1 Bft)
04.12.2022 00:00 20,7 C 0,8 C 15,1 C 15,5 C 0,7 C 0,5 C 45 % 61 % 58 % 58 % 1017,0 hPa 0,0 mm 3,9 km/h (1 Bft) N-NO 22 -5,8 C 0,8 C 6,1 km/h (2 Bft)
03.12.2022 23:55 20,7 C 0,8 C 15,1 C 15,5 C 0,7 C 0,4 C 45 % 61 % 59 % 58 % 1017,0 hPa 0,0 mm 4,1 km/h (1 Bft) O 90 -5,8 C 0,8 C 0,0 km/h (0 Bft)
03.12.2022 23:50 20,8 C 0,8 C 15,1 C 15,5 C 0,5 C -0,1 C 45 % 61 % 58 % 58 % 1016,9 hPa 0,0 mm 5,2 km/h (1 Bft) N-NO 22 -5,8 C 0,8 C 2,3 km/h (1 Bft)
03.12.2022 23:45 20,8 C 0,8 C 15,1 C 15,5 C 0,4 C -0,3 C 45 % 61 % 58 % 58 % 1016,9 hPa 0,0 mm 5,7 km/h (1 Bft) O-NO 67 -5,8 C 0,8 C 5,6 km/h (1 Bft)
03.12.2022 23:40 20,8 C 0,8 C 15,1 C 15,5 C 0,5 C -0,1 C 45 % 61 % 58 % 58 % 1016,9 hPa 0,0 mm 5,2 km/h (1 Bft) O-NO 67 -5,8 C 0,8 C 6,4 km/h (2 Bft)
03.12.2022 23:35 20,8 C 0,8 C 15,1 C 15,5 C 0,5 C 0,0 C 45 % 61 % 59 % 58 % 1016,9 hPa 0,0 mm 5,0 km/h (1 Bft) N 360 -5,8 C 0,8 C 5,8 km/h (2 Bft)
03.12.2022 23:30 20,9 C 0,8 C 15,1 C 15,5 C 0,6 C 0,3 C 45 % 61 % 59 % 58 % 1017,2 hPa 0,0 mm 4,3 km/h (1 Bft) SO 135 -5,8 C 0,8 C 3,7 km/h (1 Bft)
03.12.2022 23:25 20,9 C 0,8 C 15,1 C 15,5 C 0,7 C 0,4 C 45 % 62 % 59 % 58 % 1017,2 hPa 0,0 mm 4,1 km/h (1 Bft) O 90 -5,6 C 0,8 C 3,9 km/h (1 Bft)
03.12.2022 23:20 20,8 C 0,8 C 15,1 C 15,5 C 0,7 C 0,4 C 46 % 62 % 59 % 58 % 1017,2 hPa 0,0 mm 4,1 km/h (1 Bft) O-NO 67 -5,6 C 0,8 C 6,4 km/h (2 Bft)
03.12.2022 23:15 20,8 C 0,8 C 15,1 C 15,5 C 0,7 C 0,5 C 46 % 62 % 59 % 58 % 1017,2 hPa 0,0 mm 3,9 km/h (1 Bft) O-SO 112 -5,6 C 0,8 C 3,2 km/h (1 Bft)
03.12.2022 23:10 20,8 C 0,8 C 15,1 C 15,5 C 0,6 C 0,1 C 46 % 62 % 59 % 58 % 1017,2 hPa 0,0 mm 4,8 km/h (1 Bft) O-NO 67 -5,6 C 0,8 C 0,0 km/h (0 Bft)
03.12.2022 23:05 20,8 C 0,8 C 15,1 C 15,5 C 0,5 C 0,0 C 46 % 62 % 59 % 58 % 1017,2 hPa 0,0 mm 5,0 km/h (1 Bft) SO 135 -5,6 C 0,8 C 3,1 km/h (1 Bft)
03.12.2022 23:00 20,8 C 0,8 C 15,1 C 15,5 C 0,8 C 0,7 C 46 % 62 % 59 % 58 % 1017,2 hPa 0,0 mm 3,0 km/h (1 Bft) O-NO 67 -5,6 C 0,8 C 2,7 km/h (1 Bft)
03.12.2022 22:55 20,8 C 0,8 C 15,1 C 15,5 C 0,8 C 0,7 C 46 % 62 % 59 % 58 % 1017,2 hPa 0,0 mm 2,5 km/h (1 Bft) O-NO 67 -5,6 C 0,8 C 1,8 km/h (1 Bft)
03.12.2022 22:50 20,8 C 0,8 C 15,1 C 15,5 C 0,8 C 0,7 C 46 % 62 % 59 % 58 % 1017,4 hPa 0,0 mm 3,0 km/h (1 Bft) O 90 -5,6 C 0,8 C 6,3 km/h (2 Bft)
03.12.2022 22:45 20,8 C 0,9 C 15,1 C 15,5 C 0,8 C 0,7 C 46 % 62 % 59 % 58 % 1017,4 hPa 0,0 mm 2,3 km/h (1 Bft) N-NW 337 -5,5 C 0,9 C 2,6 km/h (1 Bft)
03.12.2022 22:40 20,8 C 0,9 C 15,1 C 15,5 C 0,8 C 0,7 C 46 % 62 % 59 % 58 % 1017,4 hPa 0,0 mm 2,0 km/h (1 Bft) N 360 -5,5 C 0,9 C 1,9 km/h (1 Bft)
03.12.2022 22:35 20,8 C 0,9 C 15,1 C 15,5 C 0,8 C 0,7 C 46 % 62 % 59 % 58 % 1017,4 hPa 0,0 mm 3,0 km/h (1 Bft) O-NO 67 -5,5 C 0,9 C 0,0 km/h (0 Bft)
03.12.2022 22:30 20,8 C 0,9 C 15,1 C 15,5 C 0,8 C 0,6 C 46 % 61 % 59 % 58 % 1017,2 hPa 0,0 mm 3,6 km/h (1 Bft) O-NO 67 -5,8 C 0,9 C 1,6 km/h (1 Bft)
03.12.2022 22:25 20,8 C 1,0 C 15,1 C 15,5 C 0,9 C 0,7 C 46 % 62 % 59 % 58 % 1017,2 hPa 0,0 mm 3,4 km/h (1 Bft) N 360 -5,4 C 1,0 C 5,0 km/h (1 Bft)
03.12.2022 22:20 20,8 C 1,0 C 15,1 C 15,5 C 0,9 C 0,7 C 46 % 62 % 59 % 58 % 1017,2 hPa 0,0 mm 2,3 km/h (1 Bft) NO 45 -5,4 C 1,0 C 2,4 km/h (1 Bft)
03.12.2022 22:15 20,8 C 0,9 C 15,1 C 15,5 C 0,8 C 0,7 C 46 % 62 % 59 % 58 % 1017,2 hPa 0,0 mm 2,5 km/h (1 Bft) NO 45 -5,5 C 0,9 C 4,5 km/h (1 Bft)
03.12.2022 22:10 20,8 C 1,0 C 15,1 C 15,5 C 0,9 C 0,6 C 46 % 62 % 59 % 58 % 1017,4 hPa 0,0 mm 3,9 km/h (1 Bft) N-NO 22 -5,4 C 1,0 C 1,8 km/h (1 Bft)
03.12.2022 22:05 20,8 C 1,1 C 15,1 C 15,5 C 0,8 C 0,3 C 46 % 61 % 59 % 58 % 1017,4 hPa 0,0 mm 4,6 km/h (1 Bft) O-NO 67 -5,6 C 1,1 C 2,3 km/h (1 Bft)
03.12.2022 22:00 20,8 C 1,0 C 15,1 C 15,5 C 0,6 C -0,2 C 46 % 61 % 59 % 58 % 1017,4 hPa 0,0 mm 5,7 km/h (1 Bft) O-NO 67 -5,7 C 1,0 C 7,9 km/h (2 Bft)
03.12.2022 21:55 20,8 C 1,0 C 15,1 C 15,5 C 0,6 C -0,1 C 46 % 62 % 59 % 58 % 1017,4 hPa 0,0 mm 5,2 km/h (1 Bft) O-NO 67 -5,4 C 1,0 C 6,3 km/h (2 Bft)
03.12.2022 21:50 20,8 C 0,9 C 15,1 C 15,4 C 0,7 C 0,4 C 46 % 62 % 59 % 58 % 1017,2 hPa 0,0 mm 4,1 km/h (1 Bft) N-NO 22 -5,5 C 0,9 C 5,5 km/h (1 Bft)
03.12.2022 21:45 20,8 C 1,0 C 15,1 C 15,5 C 0,9 C 0,7 C 46 % 62 % 59 % 58 % 1017,2 hPa 0,0 mm 2,7 km/h (1 Bft) N 360 -5,4 C 1,0 C 3,4 km/h (1 Bft)
03.12.2022 21:40 20,8 C 0,9 C 15,1 C 15,4 C 0,9 C 0,8 C 46 % 62 % 59 % 58 % 1017,2 hPa 0,0 mm 2,7 km/h (1 Bft) NO 45 -5,5 C 0,9 C 1,9 km/h (1 Bft)
03.12.2022 21:35 20,8 C 1,0 C 15,1 C 15,4 C 0,9 C 0,6 C 46 % 62 % 59 % 58 % 1017,2 hPa 0,0 mm 3,9 km/h (1 Bft) NO 45 -5,4 C 1,0 C 6,1 km/h (2 Bft)
03.12.2022 21:30 20,9 C 1,0 C 15,1 C 15,4 C 0,8 C 0,4 C 46 % 62 % 59 % 58 % 1017,4 hPa 0,0 mm 4,1 km/h (1 Bft) O 90 -5,4 C 1,0 C 3,1 km/h (1 Bft)
03.12.2022 21:25 20,8 C 1,1 C 15,1 C 15,5 C 1,0 C 0,7 C 46 % 62 % 59 % 58 % 1017,4 hPa 0,0 mm 3,6 km/h (1 Bft) NO 45 -5,3 C 1,1 C 4,8 km/h (1 Bft)
03.12.2022 21:20 20,8 C 1,0 C 15,1 C 15,4 C 0,9 C 0,8 C 46 % 62 % 59 % 58 % 1017,4 hPa 0,0 mm 3,0 km/h (1 Bft) N-NO 22 -5,4 C 1,0 C 2,4 km/h (1 Bft)
03.12.2022 21:15 20,8 C 1,1 C 15,1 C 15,4 C 1,0 C 0,8 C 46 % 62 % 59 % 58 % 1017,4 hPa 0,0 mm 2,5 km/h (1 Bft) O-NO 67 -5,3 C 1,1 C 2,1 km/h (1 Bft)
03.12.2022 21:10 20,8 C 1,1 C 15,1 C 15,4 C 1,0 C 0,8 C 46 % 62 % 59 % 58 % 1017,5 hPa 0,0 mm 2,3 km/h (1 Bft) NO 45 -5,3 C 1,1 C 3,5 km/h (1 Bft)
03.12.2022 21:05 20,8 C 1,1 C 15,1 C 15,4 C 1,0 C 0,9 C 46 % 62 % 59 % 58 % 1017,5 hPa 0,0 mm 2,0 km/h (1 Bft) N-NO 22 -5,3 C 1,1 C 0,0 km/h (0 Bft)
03.12.2022 21:00 20,8 C 1,1 C 15,1 C 15,4 C 1,1 C 1,0 C 46 % 61 % 59 % 58 % 1017,5 hPa 0,0 mm 3,0 km/h (1 Bft) NO 45 -5,6 C 1,1 C 0,0 km/h (0 Bft)
03.12.2022 20:55 20,8 C 1,1 C 15,1 C 15,4 C 1,0 C 0,9 C 46 % 61 % 59 % 58 % 1017,5 hPa 0,0 mm 3,6 km/h (1 Bft) N-NO 22 -5,6 C 1,1 C 4,7 km/h (1 Bft)
03.12.2022 20:50 20,8 C 1,1 C 15,1 C 15,4 C 1,1 C 1,0 C 46 % 61 % 59 % 58 % 1017,4 hPa 0,0 mm 3,0 km/h (1 Bft) NO 45 -5,6 C 1,1 C 2,6 km/h (1 Bft)
03.12.2022 20:45 20,7 C 1,1 C 15,1 C 15,4 C 1,1 C 1,0 C 46 % 61 % 59 % 58 % 1017,4 hPa 0,0 mm 3,2 km/h (1 Bft) NO 45 -5,6 C 1,1 C 4,7 km/h (1 Bft)
03.12.2022 20:40 20,7 C 1,1 C 15,1 C 15,4 C 0,9 C 0,5 C 46 % 60 % 59 % 58 % 1017,4 hPa 0,0 mm 4,6 km/h (1 Bft) O-NO 67 -5,8 C 1,1 C 3,9 km/h (1 Bft)
03.12.2022 20:35 20,7 C 1,1 C 15,1 C 15,4 C 0,9 C 0,4 C 46 % 60 % 59 % 58 % 1017,4 hPa 0,0 mm 5,0 km/h (1 Bft) N-NO 22 -5,8 C 1,1 C 6,0 km/h (2 Bft)
03.12.2022 20:30 20,7 C 1,1 C 15,1 C 15,4 C 0,8 C 0,1 C 46 % 60 % 59 % 58 % 1017,4 hPa 0,0 mm 5,9 km/h (2 Bft) SO 135 -5,8 C 1,1 C 5,8 km/h (2 Bft)
03.12.2022 20:25 20,6 C 1,1 C 15,1 C 15,4 C 0,8 C 0,1 C 46 % 60 % 59 % 58 % 1017,4 hPa 0,0 mm 5,9 km/h (2 Bft) NO 45 -5,8 C 1,1 C 8,4 km/h (2 Bft)
03.12.2022 20:20 20,7 C 1,1 C 15,1 C 15,4 C 0,7 C -0,1 C 46 % 60 % 59 % 58 % 1017,4 hPa 0,0 mm 6,4 km/h (2 Bft) O-NO 67 -5,8 C 1,1 C 5,6 km/h (1 Bft)
03.12.2022 20:15 20,6 C 1,1 C 15,0 C 15,4 C 0,7 C 0,0 C 46 % 60 % 59 % 58 % 1017,4 hPa 0,0 mm 6,1 km/h (2 Bft) NO 45 -5,8 C 1,1 C 5,1 km/h (1 Bft)
03.12.2022 20:10 20,6 C 1,1 C 15,0 C 15,3 C 0,8 C 0,2 C 46 % 61 % 59 % 58 % 1017,3 hPa 0,0 mm 5,5 km/h (1 Bft) O-NO 67 -5,6 C 1,1 C 3,4 km/h (1 Bft)
03.12.2022 20:05 20,6 C 1,1 C 15,0 C 15,4 C 0,7 C 0,0 C 46 % 61 % 59 % 58 % 1017,3 hPa 0,0 mm 6,1 km/h (2 Bft) N 360 -5,6 C 1,1 C 3,9 km/h (1 Bft)
03.12.2022 20:00 20,6 C 1,1 C 15,0 C 15,4 C 1,1 C 1,1 C 46 % 61 % 59 % 58 % 1017,3 hPa 0,0 mm 3,6 km/h (1 Bft) N 360 -5,6 C 1,1 C 5,0 km/h (1 Bft)
03.12.2022 19:55 20,6 C 1,2 C 15,0 C 15,3 C 1,2 C 1,1 C 46 % 61 % 59 % 58 % 1017,3 hPa 0,0 mm 2,5 km/h (1 Bft) O-NO 67 -5,5 C 1,2 C 6,4 km/h (2 Bft)
03.12.2022 19:50 20,6 C 1,2 C 15,0 C 15,3 C 1,1 C 0,8 C 46 % 61 % 59 % 58 % 1017,2 hPa 0,0 mm 4,1 km/h (1 Bft) N-NO 22 -5,5 C 1,2 C 2,7 km/h (1 Bft)
03.12.2022 19:45 20,6 C 1,2 C 15,0 C 15,3 C 1,0 C 0,6 C 46 % 61 % 59 % 58 % 1017,2 hPa 0,0 mm 4,8 km/h (1 Bft) NO 45 -5,5 C 1,2 C 2,7 km/h (1 Bft)
03.12.2022 19:40 20,6 C 1,2 C 15,0 C 15,3 C 1,0 C 0,7 C 46 % 60 % 59 % 58 % 1017,2 hPa 0,0 mm 4,3 km/h (1 Bft) O-NO 67 -5,7 C 1,2 C 9,5 km/h (2 Bft)
03.12.2022 19:35 20,6 C 1,2 C 15,0 C 15,3 C 1,1 C 0,8 C 46 % 60 % 59 % 58 % 1017,2 hPa 0,0 mm 4,1 km/h (1 Bft) O-NO 67 -5,7 C 1,2 C 5,1 km/h (1 Bft)
03.12.2022 19:30 20,6 C 1,1 C 15,0 C 15,3 C 1,0 C 0,9 C 46 % 60 % 59 % 58 % 1017,2 hPa 0,0 mm 3,9 km/h (1 Bft) O-NO 67 -5,8 C 1,1 C 1,6 km/h (1 Bft)
03.12.2022 19:25 20,6 C 1,2 C 15,0 C 15,3 C 1,2 C 1,1 C 47 % 61 % 59 % 58 % 1017,2 hPa 0,0 mm 2,7 km/h (1 Bft) O 90 -5,5 C 1,2 C 3,2 km/h (1 Bft)
03.12.2022 19:20 20,6 C 1,2 C 15,0 C 15,3 C 1,2 C 1,1 C 47 % 61 % 59 % 58 % 1017,2 hPa 0,0 mm 2,7 km/h (1 Bft) O-SO 112 -5,5 C 1,2 C 1,6 km/h (1 Bft)
03.12.2022 19:15 20,5 C 1,1 C 15,0 C 15,3 C 1,0 C 0,8 C 47 % 61 % 59 % 58 % 1017,2 hPa 0,0 mm 4,1 km/h (1 Bft) N-NO 22 -5,6 C 1,1 C 3,5 km/h (1 Bft)
03.12.2022 19:10 20,5 C 1,1 C 15,0 C 15,3 C 0,9 C 0,6 C 47 % 61 % 59 % 58 % 1016,1 hPa 0,0 mm 4,8 km/h (1 Bft) O 90 -5,6 C 1,1 C 6,4 km/h (2 Bft)
03.12.2022 19:05 20,4 C 1,1 C 15,0 C 15,3 C 1,0 C 0,8 C 47 % 62 % 59 % 58 % 1016,1 hPa 0,0 mm 4,1 km/h (1 Bft) N 360 -5,3 C 1,1 C 3,9 km/h (1 Bft)
03.12.2022 19:00 20,4 C 1,1 C 15,0 C 15,3 C 1,1 C 1,1 C 47 % 62 % 59 % 58 % 1016,1 hPa 0,0 mm 3,4 km/h (1 Bft) O-NO 67 -5,3 C 1,1 C 3,4 km/h (1 Bft)
03.12.2022 18:55 20,3 C 1,2 C 15,0 C 15,3 C 1,2 C 1,1 C 47 % 62 % 59 % 58 % 1016,1 hPa 0,0 mm 3,6 km/h (1 Bft) O-NO 67 -5,3 C 1,2 C 4,7 km/h (1 Bft)
03.12.2022 18:50 20,2 C 1,1 C 15,0 C 15,3 C 1,0 C 0,9 C 48 % 62 % 59 % 58 % 1017,2 hPa 0,0 mm 3,9 km/h (1 Bft) O 90 -5,3 C 1,1 C 5,1 km/h (1 Bft)
03.12.2022 18:45 20,1 C 1,1 C 15,0 C 15,3 C 1,1 C 1,1 C 48 % 62 % 59 % 58 % 1017,2 hPa 0,0 mm 3,6 km/h (1 Bft) N-NO 22 -5,3 C 1,1 C 4,0 km/h (1 Bft)
03.12.2022 18:40 20,0 C 1,2 C 15,0 C 15,2 C 1,2 C 1,1 C 48 % 62 % 59 % 58 % 1017,2 hPa 0,0 mm 2,5 km/h (1 Bft) N-NO 22 -5,3 C 1,2 C 0,0 km/h (0 Bft)
03.12.2022 18:35 19,9 C 1,1 C 15,0 C 15,3 C 1,1 C 1,1 C 48 % 62 % 59 % 58 % 1017,2 hPa 0,0 mm 2,5 km/h (1 Bft) NW 315 -5,3 C 1,1 C 2,9 km/h (1 Bft)
03.12.2022 18:30 19,8 C 1,1 C 15,0 C 15,2 C 1,1 C 1,1 C 49 % 62 % 59 % 58 % 1016,9 hPa 0,0 mm 2,3 km/h (1 Bft) N-NO 22 -5,3 C 1,1 C 4,2 km/h (1 Bft)
03.12.2022 18:25 19,6 C 1,1 C 15,0 C 15,2 C 1,1 C 1,1 C 49 % 62 % 59 % 58 % 1016,9 hPa 0,0 mm 2,7 km/h (1 Bft) O 90 -5,3 C 1,1 C 2,1 km/h (1 Bft)
03.12.2022 18:20 19,5 C 1,1 C 15,0 C 15,2 C 1,0 C 0,7 C 49 % 62 % 59 % 58 % 1016,9 hPa 0,0 mm 4,3 km/h (1 Bft) O-NO 67 -5,3 C 1,1 C 3,9 km/h (1 Bft)
03.12.2022 18:15 19,5 C 1,1 C 14,9 C 15,2 C 1,0 C 0,8 C 49 % 62 % 59 % 58 % 1016,9 hPa 0,0 mm 4,1 km/h (1 Bft) O-NO 67 -5,3 C 1,1 C 1,9 km/h (1 Bft)
03.12.2022 18:10 19,2 C 1,1 C 14,9 C 15,2 C 0,8 C 0,2 C 50 % 62 % 59 % 58 % 1016,7 hPa 0,0 mm 5,7 km/h (1 Bft) O 90 -5,3 C 1,1 C 6,1 km/h (2 Bft)
03.12.2022 18:05 19,2 C 1,1 C 14,9 C 15,2 C 0,8 C 0,3 C 50 % 62 % 59 % 58 % 1016,7 hPa 0,0 mm 5,2 km/h (1 Bft) O 90 -5,3 C 1,1 C 8,5 km/h (2 Bft)
03.12.2022 18:00 19,0 C 1,1 C 14,9 C 15,2 C 1,0 C 0,8 C 50 % 62 % 59 % 58 % 1016,7 hPa 0,0 mm 4,1 km/h (1 Bft) N 360 -5,3 C 1,1 C 6,1 km/h (2 Bft)
03.12.2022 17:55 18,8 C 1,1 C 14,9 C 15,2 C 1,0 C 0,7 C 51 % 62 % 59 % 58 % 1016,7 hPa 0,0 mm 4,3 km/h (1 Bft) NO 45 -5,3 C 1,1 C 4,5 km/h (1 Bft)
03.12.2022 17:50 18,6 C 1,1 C 14,9 C 15,2 C 1,1 C 1,1 C 51 % 62 % 59 % 58 % 1016,8 hPa 0,0 mm 3,6 km/h (1 Bft) N-NO 22 -5,3 C 1,1 C 3,5 km/h (1 Bft)
03.12.2022 17:45 18,5 C 1,2 C 14,9 C 15,2 C 1,2 C 1,1 C 51 % 62 % 59 % 58 % 1016,8 hPa 0,0 mm 3,0 km/h (1 Bft) W-SW 247 -5,3 C 1,2 C 3,4 km/h (1 Bft)
03.12.2022 17:40 18,5 C 1,2 C 14,8 C 15,1 C 1,2 C 1,1 C 51 % 62 % 59 % 58 % 1016,8 hPa 0,0 mm 2,3 km/h (1 Bft) N-NO 22 -5,3 C 1,2 C 1,9 km/h (1 Bft)
03.12.2022 17:35 18,5 C 1,2 C 14,9 C 15,1 C 1,2 C 1,1 C 51 % 61 % 59 % 58 % 1016,8 hPa 0,0 mm 3,4 km/h (1 Bft) N-NO 22 -5,5 C 1,2 C 3,9 km/h (1 Bft)
03.12.2022 17:30 18,5 C 1,2 C 14,8 C 15,1 C 1,1 C 0,9 C 51 % 61 % 59 % 58 % 1016,7 hPa 0,0 mm 3,9 km/h (1 Bft) N-NO 22 -5,5 C 1,2 C 1,8 km/h (1 Bft)
03.12.2022 17:25 18,5 C 1,2 C 14,8 C 15,1 C 1,2 C 1,1 C 51 % 61 % 59 % 58 % 1016,7 hPa 0,0 mm 3,6 km/h (1 Bft) O 90 -5,5 C 1,2 C 3,2 km/h (1 Bft)
03.12.2022 17:20 18,5 C 1,2 C 14,8 C 15,1 C 1,0 C 0,6 C 51 % 61 % 59 % 58 % 1016,7 hPa 0,0 mm 4,6 km/h (1 Bft) N-NO 22 -5,5 C 1,2 C 2,4 km/h (1 Bft)
03.12.2022 17:15 18,6 C 1,2 C 14,8 C 15,1 C 0,9 C 0,4 C 51 % 61 % 59 % 58 % 1016,7 hPa 0,0 mm 5,0 km/h (1 Bft) O-NO 67 -5,5 C 1,2 C 5,3 km/h (1 Bft)
03.12.2022 17:10 18,5 C 1,2 C 14,9 C 15,1 C 1,0 C 0,7 C 51 % 61 % 59 % 58 % 1016,9 hPa 0,0 mm 4,3 km/h (1 Bft) O-SO 112 -5,5 C 1,2 C 4,0 km/h (1 Bft)
03.12.2022 17:05 18,6 C 1,3 C 14,9 C 15,2 C 1,2 C 1,1 C 51 % 61 % 59 % 58 % 1016,9 hPa 0,0 mm 3,4 km/h (1 Bft) O-NO 67 -5,4 C 1,3 C 4,2 km/h (1 Bft)
03.12.2022 17:00 18,5 C 1,3 C 14,8 C 15,1 C 1,2 C 0,9 C 51 % 61 % 59 % 58 % 1016,9 hPa 0,0 mm 3,9 km/h (1 Bft) O 90 -5,4 C 1,3 C 1,9 km/h (1 Bft)
03.12.2022 16:55 18,5 C 1,3 C 14,9 C 15,1 C 1,1 C 0,8 C 51 % 61 % 59 % 58 % 1016,9 hPa 0,0 mm 4,1 km/h (1 Bft) O-NO 67 -5,4 C 1,3 C 4,8 km/h (1 Bft)
03.12.2022 16:50 18,5 C 1,3 C 14,9 C 15,1 C 1,1 C 0,7 C 51 % 61 % 59 % 58 % 1017,1 hPa 0,0 mm 4,6 km/h (1 Bft) O-NO 67 -5,4 C 1,3 C 2,7 km/h (1 Bft)
03.12.2022 16:45 18,5 C 1,4 C 14,9 C 15,1 C 1,1 C 0,6 C 51 % 61 % 59 % 58 % 1017,1 hPa 0,0 mm 5,0 km/h (1 Bft) N-NO 22 -5,3 C 1,4 C 5,0 km/h (1 Bft)
03.12.2022 16:40 18,5 C 1,4 C 14,9 C 15,2 C 1,3 C 1,2 C 51 % 60 % 59 % 58 % 1017,1 hPa 0,0 mm 3,6 km/h (1 Bft) SW 225 -5,5 C 1,4 C 4,5 km/h (1 Bft)
03.12.2022 16:35 18,5 C 1,4 C 14,9 C 15,1 C 1,3 C 1,2 C 51 % 60 % 59 % 58 % 1017,1 hPa 0,0 mm 3,6 km/h (1 Bft) N-NO 22 -5,5 C 1,4 C 2,7 km/h (1 Bft)
03.12.2022 16:30 18,6 C 1,4 C 14,9 C 15,2 C 1,3 C 1,0 C 51 % 60 % 59 % 58 % 1016,9 hPa 0,0 mm 4,1 km/h (1 Bft) O-SO 112 -5,5 C 1,4 C 7,6 km/h (2 Bft)
03.12.2022 16:25 18,5 C 1,5 C 14,9 C 15,2 C 1,3 C 1,0 C 51 % 60 % 59 % 58 % 1016,9 hPa 0,0 mm 4,1 km/h (1 Bft) N 360 -5,4 C 1,5 C 0,0 km/h (0 Bft)
03.12.2022 16:20 18,6 C 1,5 C 14,9 C 15,2 C 1,3 C 0,9 C 50 % 60 % 59 % 58 % 1016,9 hPa 0,0 mm 4,6 km/h (1 Bft) N-NO 22 -5,4 C 1,5 C 5,5 km/h (1 Bft)
03.12.2022 16:15 18,5 C 1,5 C 14,9 C 15,2 C 1,4 C 1,2 C 50 % 60 % 59 % 58 % 1016,9 hPa 0,0 mm 3,9 km/h (1 Bft) N 360 -5,4 C 1,5 C 4,7 km/h (1 Bft)
03.12.2022 16:10 18,6 C 1,5 C 14,9 C 15,2 C 1,3 C 1,0 C 50 % 59 % 59 % 58 % 1017,1 hPa 0,0 mm 4,3 km/h (1 Bft) O-NO 67 -5,6 C 1,5 C 1,6 km/h (1 Bft)
03.12.2022 16:05 18,6 C 1,5 C 14,9 C 15,2 C 1,3 C 0,8 C 50 % 59 % 59 % 58 % 1017,1 hPa 0,0 mm 5,2 km/h (1 Bft) O-NO 67 -5,6 C 1,5 C 2,7 km/h (1 Bft)
03.12.2022 16:00 18,6 C 1,6 C 14,9 C 15,2 C 1,3 C 0,7 C 50 % 59 % 59 % 58 % 1017,1 hPa 0,0 mm 5,5 km/h (1 Bft) O-SO 112 -5,5 C 1,6 C 4,2 km/h (1 Bft)
03.12.2022 15:55 18,6 C 1,6 C 14,9 C 15,2 C 1,4 C 0,9 C 50 % 59 % 59 % 58 % 1017,1 hPa 0,0 mm 5,0 km/h (1 Bft) N 360 -5,5 C 1,6 C 5,8 km/h (2 Bft)
03.12.2022 15:50 18,6 C 1,6 C 14,9 C 15,2 C 1,6 C 1,5 C 50 % 59 % 59 % 58 % 1016,9 hPa 0,0 mm 3,9 km/h (1 Bft) O 90 -5,5 C 1,6 C 6,8 km/h (2 Bft)
03.12.2022 15:45 18,6 C 1,6 C 14,9 C 15,2 C 1,5 C 1,3 C 50 % 58 % 59 % 58 % 1016,9 hPa 0,0 mm 4,3 km/h (1 Bft) N-NO 22 -5,8 C 1,6 C 3,1 km/h (1 Bft)
03.12.2022 15:40 18,6 C 1,6 C 14,9 C 15,2 C 1,3 C 0,6 C 50 % 58 % 59 % 58 % 1016,9 hPa 0,0 mm 6,4 km/h (2 Bft) O-NO 67 -5,8 C 1,6 C 6,8 km/h (2 Bft)
03.12.2022 15:35 18,5 C 1,7 C 14,9 C 15,2 C 1,4 C 0,7 C 50 % 58 % 59 % 58 % 1016,9 hPa 0,0 mm 6,1 km/h (2 Bft) N-NO 22 -5,7 C 1,7 C 5,8 km/h (2 Bft)
03.12.2022 15:30 18,5 C 1,8 C 14,9 C 15,2 C 1,4 C 0,7 C 50 % 57 % 59 % 58 % 1016,7 hPa 0,0 mm 6,1 km/h (2 Bft) O 90 -5,8 C 1,8 C 9,0 km/h (2 Bft)
03.12.2022 15:25 18,5 C 1,8 C 14,9 C 15,2 C 1,6 C 1,1 C 50 % 57 % 59 % 58 % 1016,7 hPa 0,0 mm 5,2 km/h (1 Bft) N-NO 22 -5,8 C 1,8 C 2,7 km/h (1 Bft)
03.12.2022 15:20 18,4 C 1,8 C 14,9 C 15,2 C 1,5 C 1,0 C 49 % 57 % 59 % 58 % 1016,7 hPa 0,0 mm 5,7 km/h (1 Bft) SO 135 -5,8 C 1,8 C 0,0 km/h (0 Bft)
03.12.2022 15:15 18,4 C 1,9 C 14,9 C 15,2 C 1,5 C 0,8 C 49 % 57 % 59 % 58 % 1016,7 hPa 0,0 mm 6,1 km/h (2 Bft) O 90 -5,7 C 1,9 C 2,9 km/h (1 Bft)
03.12.2022 15:10 18,4 C 1,9 C 14,9 C 15,2 C 1,8 C 1,5 C 49 % 57 % 59 % 58 % 1016,6 hPa 0,0 mm 4,8 km/h (1 Bft) O-NO 67 -5,7 C 1,9 C 6,0 km/h (2 Bft)
03.12.2022 15:00 18,2 C 1,9 C 15,0 C 15,2 C 1,7 C 1,3 C 49 % 57 % 59 % 58 % 1016,6 hPa 0,0 mm 5,5 km/h (1 Bft) N-NO 22 -5,7 C 1,9 C 2,7 km/h (1 Bft)
03.12.2022 14:55 18,3 C 1,9 C 14,9 C 15,2 C 1,6 C 0,9 C 49 % 57 % 59 % 58 % 1016,6 hPa 0,0 mm 6,6 km/h (2 Bft) NO 45 -5,7 C 1,7 C 4,0 km/h (1 Bft)
03.12.2022 14:50 18,2 C 2,0 C 15,0 C 15,2 C 1,6 C 0,8 C 49 % 56 % 59 % 58 % 1016,7 hPa 0,0 mm 7,5 km/h (2 Bft) N 360 -5,8 C 0,9 C 2,7 km/h (1 Bft)
03.12.2022 14:45 18,2 C 2,1 C 15,0 C 15,2 C 1,6 C 0,7 C 49 % 56 % 59 % 58 % 1016,7 hPa 0,0 mm 8,0 km/h (2 Bft) N-NO 22 -5,7 C 0,6 C 10,6 km/h (2 Bft)
03.12.2022 14:40 18,1 C 2,1 C 15,0 C 15,2 C 1,8 C 1,2 C 48 % 56 % 59 % 58 % 1016,7 hPa 0,0 mm 6,8 km/h (2 Bft) N-NO 22 -5,7 C 1,7 C 10,8 km/h (2 Bft)
03.12.2022 14:35 18,1 C 2,1 C 15,0 C 15,2 C 1,9 C 1,6 C 47 % 57 % 59 % 58 % 1016,7 hPa 0,0 mm 6,1 km/h (2 Bft) O-NO 67 -5,5 C 2,1 C 10,1 km/h (2 Bft)
03.12.2022 14:30 18,4 C 2,2 C 14,9 C 15,2 C 2,1 C 1,8 C 45 % 57 % 59 % 58 % 1016,9 hPa 0,0 mm 5,7 km/h (1 Bft) N-NO 22 -5,4 C 2,2 C 7,7 km/h (2 Bft)
03.12.2022 14:25 18,7 C 2,2 C 15,0 C 15,2 C 2,1 C 1,9 C 49 % 57 % 59 % 58 % 1016,9 hPa 0,0 mm 5,5 km/h (1 Bft) N-NO 22 -5,4 C 2,2 C 4,7 km/h (1 Bft)
03.12.2022 14:20 18,8 C 2,1 C 15,0 C 15,3 C 2,0 C 1,7 C 49 % 57 % 59 % 58 % 1016,9 hPa 0,0 mm 6,1 km/h (2 Bft) O 90 -5,5 C 2,1 C 3,4 km/h (1 Bft)
03.12.2022 14:15 18,8 C 2,1 C 15,0 C 15,3 C 1,9 C 1,4 C 50 % 56 % 59 % 58 % 1016,9 hPa 0,0 mm 6,8 km/h (2 Bft) NO 45 -5,7 C 1,7 C 4,7 km/h (1 Bft)
03.12.2022 14:10 18,8 C 2,1 C 15,0 C 15,3 C 2,0 C 1,9 C 50 % 56 % 59 % 58 % 1017,0 hPa 0,0 mm 5,9 km/h (2 Bft) O-NO 67 -5,7 C 2,1 C 6,9 km/h (2 Bft)
03.12.2022 14:05 18,8 C 2,2 C 15,0 C 15,3 C 2,1 C 1,8 C 50 % 56 % 59 % 58 % 1017,0 hPa 0,0 mm 6,1 km/h (2 Bft) NO 45 -5,6 C 2,2 C 6,1 km/h (2 Bft)
03.12.2022 14:00 18,8 C 2,2 C 15,0 C 15,2 C 2,1 C 1,9 C 50 % 56 % 59 % 58 % 1017,0 hPa 0,0 mm 6,1 km/h (2 Bft) O 90 -5,6 C 2,2 C 0,0 km/h (0 Bft)
03.12.2022 13:55 18,8 C 2,2 C 15,0 C 15,2 C 2,3 C 2,3 C 50 % 56 % 59 % 58 % 1017,0 hPa 0,0 mm 5,7 km/h (1 Bft) O 90 -5,6 C 2,2 C 12,9 km/h (3 Bft)
03.12.2022 13:50 18,8 C 2,1 C 15,0 C 15,3 C 2,3 C 2,3 C 50 % 56 % 59 % 58 % 1017,3 hPa 0,0 mm 5,2 km/h (1 Bft) N-NO 22 -5,7 C 2,1 C 4,0 km/h (1 Bft)
03.12.2022 13:45 18,8 C 2,1 C 15,0 C 15,3 C 2,0 C 1,9 C 50 % 55 % 59 % 58 % 1017,3 hPa 0,0 mm 5,9 km/h (2 Bft) O 90 -6,0 C 2,1 C 3,9 km/h (1 Bft)
03.12.2022 13:40 18,8 C 2,1 C 15,0 C 15,3 C 1,9 C 1,5 C 50 % 55 % 59 % 58 % 1017,3 hPa 0,0 mm 7,1 km/h (2 Bft) O-NO 67 -6,0 C 1,4 C 9,8 km/h (2 Bft)
03.12.2022 13:35 18,8 C 2,0 C 15,0 C 15,3 C 1,9 C 1,6 C 50 % 55 % 59 % 58 % 1017,3 hPa 0,0 mm 6,6 km/h (2 Bft) O-NO 67 -6,1 C 1,8 C 2,9 km/h (1 Bft)
03.12.2022 13:30 18,8 C 2,1 C 15,0 C 15,3 C 2,0 C 1,7 C 50 % 56 % 59 % 58 % 1017,3 hPa 0,0 mm 6,4 km/h (2 Bft) N-NO 22 -5,7 C 2,1 C 5,6 km/h (1 Bft)
03.12.2022 13:25 18,8 C 2,1 C 15,0 C 15,3 C 1,9 C 1,5 C 50 % 56 % 59 % 58 % 1017,3 hPa 0,0 mm 7,1 km/h (2 Bft) N-NO 22 -5,7 C 1,4 C 6,8 km/h (2 Bft)
03.12.2022 13:20 18,8 C 2,0 C 15,0 C 15,3 C 1,8 C 1,4 C 50 % 55 % 59 % 58 % 1017,3 hPa 0,0 mm 6,8 km/h (2 Bft) N-NO 22 -6,1 C 1,6 C 8,2 km/h (2 Bft)
03.12.2022 13:15 18,8 C 2,0 C 15,0 C 15,3 C 1,9 C 1,6 C 50 % 56 % 59 % 58 % 1017,3 hPa 0,0 mm 5,9 km/h (2 Bft) N-NW 337 -5,8 C 2,0 C 12,1 km/h (2 Bft)
03.12.2022 13:10 18,7 C 2,0 C 15,0 C 15,3 C 2,2 C 2,2 C 50 % 56 % 59 % 58 % 1017,6 hPa 0,0 mm 4,3 km/h (1 Bft) O-NO 67 -5,8 C 2,0 C 6,9 km/h (2 Bft)
03.12.2022 13:05 18,7 C 2,0 C 15,0 C 15,3 C 2,2 C 2,2 C 50 % 56 % 59 % 58 % 1017,6 hPa 0,0 mm 4,6 km/h (1 Bft) O-SO 112 -5,8 C 2,0 C 9,2 km/h (2 Bft)
03.12.2022 13:00 18,7 C 1,9 C 15,0 C 15,3 C 2,1 C 2,1 C 50 % 55 % 59 % 58 % 1017,6 hPa 0,0 mm 4,8 km/h (1 Bft) O 90 -6,2 C 1,9 C 2,9 km/h (1 Bft)
03.12.2022 12:55 18,7 C 1,9 C 15,0 C 15,3 C 1,8 C 1,5 C 50 % 55 % 59 % 58 % 1017,6 hPa 0,0 mm 5,9 km/h (2 Bft) O-NO 67 -6,2 C 1,9 C 2,6 km/h (1 Bft)
03.12.2022 12:50 18,7 C 1,9 C 15,0 C 15,3 C 1,7 C 1,4 C 50 % 55 % 59 % 58 % 1017,9 hPa 0,0 mm 6,1 km/h (2 Bft) O-NO 67 -6,2 C 1,9 C 4,5 km/h (1 Bft)
03.12.2022 12:45 18,7 C 2,0 C 15,0 C 15,3 C 1,9 C 1,7 C 50 % 55 % 59 % 58 % 1017,9 hPa 0,0 mm 5,7 km/h (1 Bft) S-SO 157 -6,1 C 2,0 C 2,9 km/h (1 Bft)
03.12.2022 12:40 18,7 C 2,0 C 15,0 C 15,3 C 2,0 C 2,0 C 50 % 55 % 59 % 58 % 1017,9 hPa 0,0 mm 5,2 km/h (1 Bft) NO 45 -6,1 C 2,0 C 3,7 km/h (1 Bft)
03.12.2022 12:35 18,7 C 2,0 C 15,0 C 15,3 C 2,1 C 2,1 C 50 % 55 % 59 % 58 % 1017,9 hPa 0,0 mm 5,0 km/h (1 Bft) O-NO 67 -6,1 C 2,0 C 5,6 km/h (1 Bft)
03.12.2022 12:30 18,7 C 2,0 C 15,0 C 15,3 C 2,0 C 2,0 C 50 % 55 % 59 % 58 % 1017,9 hPa 0,0 mm 5,2 km/h (1 Bft) O 90 -6,1 C 2,0 C 3,2 km/h (1 Bft)
03.12.2022 12:25 18,7 C 1,9 C 15,0 C 15,3 C 1,8 C 1,7 C 50 % 55 % 59 % 58 % 1017,9 hPa 0,0 mm 5,9 km/h (2 Bft) O 90 -6,2 C 1,9 C 3,5 km/h (1 Bft)
03.12.2022 12:20 18,6 C 2,0 C 15,0 C 15,3 C 1,9 C 1,6 C 50 % 55 % 59 % 58 % 1017,9 hPa 0,0 mm 6,4 km/h (2 Bft) O-NO 67 -6,1 C 2,0 C 5,0 km/h (1 Bft)
03.12.2022 12:15 18,7 C 2,0 C 15,0 C 15,3 C 1,8 C 1,5 C 50 % 54 % 59 % 58 % 1017,9 hPa 0,0 mm 7,1 km/h (2 Bft) NO 45 -6,3 C 1,3 C 8,4 km/h (2 Bft)
03.12.2022 12:10 18,7 C 2,0 C 15,0 C 15,3 C 2,1 C 2,1 C 50 % 55 % 59 % 58 % 1018,2 hPa 0,0 mm 5,2 km/h (1 Bft) O 90 -6,1 C 2,0 C 7,7 km/h (2 Bft)
03.12.2022 12:05 18,7 C 2,1 C 15,0 C 15,3 C 2,0 C 1,9 C 50 % 55 % 59 % 58 % 1018,2 hPa 0,0 mm 5,9 km/h (2 Bft) O-SO 112 -6,0 C 2,1 C 6,1 km/h (2 Bft)
03.12.2022 12:00 18,7 C 2,0 C 15,0 C 15,3 C 1,9 C 1,8 C 50 % 56 % 59 % 58 % 1018,2 hPa 0,0 mm 6,4 km/h (2 Bft) O-SO 112 -5,8 C 2,0 C 0,0 km/h (0 Bft)
03.12.2022 11:55 18,6 C 2,0 C 15,0 C 15,3 C 1,9 C 1,7 C 50 % 56 % 59 % 58 % 1018,2 hPa 0,0 mm 7,1 km/h (2 Bft) O 90 -5,8 C 1,3 C 16,4 km/h (3 Bft)
03.12.2022 11:50 18,6 C 2,0 C 15,0 C 15,3 C 1,9 C 1,8 C 50 % 57 % 59 % 58 % 1018,6 hPa 0,0 mm 6,1 km/h (2 Bft) O 90 -5,6 C 2,0 C 9,7 km/h (2 Bft)
03.12.2022 11:45 18,6 C 1,9 C 15,0 C 15,3 C 1,8 C 1,7 C 50 % 57 % 59 % 58 % 1018,6 hPa 0,0 mm 5,9 km/h (2 Bft) O-NO 67 -5,7 C 1,9 C 3,5 km/h (1 Bft)
03.12.2022 11:40 18,6 C 1,8 C 15,0 C 15,3 C 1,9 C 1,9 C 50 % 57 % 59 % 58 % 1018,6 hPa 0,0 mm 4,6 km/h (1 Bft) NW 315 -5,8 C 1,8 C 2,1 km/h (1 Bft)
03.12.2022 11:35 18,6 C 1,6 C 15,0 C 15,3 C 2,2 C 2,2 C 50 % 57 % 59 % 58 % 1018,6 hPa 0,0 mm 3,6 km/h (1 Bft) N-NO 22 -6,0 C 1,6 C 3,2 km/h (1 Bft)
03.12.2022 11:30 18,5 C 1,6 C 15,0 C 15,3 C 1,9 C 1,9 C 50 % 57 % 59 % 58 % 1018,8 hPa 0,0 mm 3,9 km/h (1 Bft) O-NO 67 -6,0 C 1,6 C 6,6 km/h (2 Bft)
03.12.2022 11:25 18,5 C 1,6 C 15,0 C 15,3 C 1,5 C 1,2 C 50 % 57 % 59 % 58 % 1018,8 hPa 0,0 mm 5,2 km/h (1 Bft) N 360 -6,0 C 1,6 C 2,3 km/h (1 Bft)
03.12.2022 11:20 18,5 C 1,6 C 15,0 C 15,3 C 1,7 C 1,7 C 50 % 58 % 59 % 58 % 1018,8 hPa 0,0 mm 4,3 km/h (1 Bft) O 90 -5,8 C 1,6 C 2,3 km/h (1 Bft)
03.12.2022 11:15 18,5 C 1,6 C 15,0 C 15,4 C 1,8 C 1,8 C 50 % 58 % 59 % 58 % 1018,8 hPa 0,0 mm 4,1 km/h (1 Bft) O 90 -5,8 C 1,6 C 8,4 km/h (2 Bft)
03.12.2022 11:10 18,4 C 1,6 C 15,0 C 15,4 C 1,5 C 1,4 C 50 % 58 % 59 % 58 % 1019,2 hPa 0,0 mm 4,8 km/h (1 Bft) S-SO 157 -5,8 C 1,6 C 4,3 km/h (1 Bft)
03.12.2022 11:05 18,4 C 1,6 C 15,0 C 15,4 C 1,4 C 1,1 C 49 % 58 % 59 % 58 % 1019,2 hPa 0,0 mm 5,2 km/h (1 Bft) O 90 -5,8 C 1,6 C 5,3 km/h (1 Bft)
03.12.2022 11:00 18,4 C 1,5 C 15,1 C 15,4 C 1,2 C 0,7 C 49 % 58 % 59 % 58 % 1019,2 hPa 0,0 mm 6,4 km/h (2 Bft) N-NO 22 -5,8 C 1,5 C 6,9 km/h (2 Bft)
_ Min-Zeit 14:35 07:05 17:00 16:35 07:55 06:50 07:45 12:15 23:40 01:15 07:55 - 02:25 - - 12:15 07:05 12:00
Minimum _ 18,1 C 0,0 C 14,8 C 15,1 C -0,6 C -1,8 C 37 % 54 % 58 % 57 % 1015,1 hPa - 1,1 km/h (1 Bft) - - -6,3 C 0,0 C 0,0 km/h (0 Bft)
_ Max-Zeit 21:30 13:55 11:00 21:25 13:50 13:50 16:25 03:40 11:00 11:00 11:00 11:00 14:45 - - 03:40 13:55 11:55
Maximum _ 20,9 C 2,2 C 15,1 C 15,5 C 2,3 C 2,3 C 51 % 65 % 59 % 58 % 1019,2 hPa 0,0 mm 8,0 km/h
N-NO (2 Bft)
- - -5,2 C 2,2 C 16,4 km/h
O (3 Bft)
Durchschnitt _ 19,6 C 1,0 C 15,0 C 15,4 C 0,9 C 0,5 C 47 % 61 % 59 % 58 % 1017,4 hPa #0,0 mm 4,5 km/h (1 Bft) N-NO - -5,6 C 1,0 C 4,5 km/h (1 Bft)